When you browse on this site, cookies collect data to enhance your experience and personalize the content and advertising you see.
Visit our Privacy Policy to learn more. By continuing to use the site, you agree to this use of cookies and data.
  • In Czech Republic
  • List of Countries
  • For 7 days
  • Water Temperature
  • Weather Map
  • Weather Widgets
  • user-avatar
    Login

    Hourly Weather Albany

    Today, 17 February, Monday

    Time Temperature Precipitation Wind Pressure Humidity
    00:00 +17°C° 0 mm 3 mps 760 mmHg 70%
    01:00 +17°C° 0 mm 4 mps 760 mmHg 72%
    02:00 +17°C° 0 mm 4 mps 760 mmHg 74%
    03:00 +17°C° 0.1 mm 4 mps 761 mmHg 74%
    04:00 +17°C° 0.1 mm 4 mps 761 mmHg 73%
    05:00 +15°C° 0.1 mm 4 mps 762 mmHg 73%
    06:00 +17°C° 0 mm 4 mps 762 mmHg 69%
    07:00 +17°C° 0 mm 4 mps 762 mmHg 66%
    08:00 +18°C° 0 mm 4 mps 763 mmHg 62%
    09:00 +19°C° 0 mm 4 mps 763 mmHg 57%
    10:00 +20°C° 0 mm 4 mps 764 mmHg 52%
    11:00 +21°C° 0 mm 4 mps 764 mmHg 47%
    12:00 +21°C° 0 mm 5 mps 764 mmHg 46%
    13:00 +21°C° 0 mm 5 mps 763 mmHg 46%
    14:00 +21°C° 0 mm 5 mps 763 mmHg 45%
    15:00 +20°C° 0 mm 5 mps 763 mmHg 47%
    16:00 +20°C° 0 mm 5 mps 763 mmHg 49%
    17:00 +19°C° 0 mm 5 mps 764 mmHg 51%
    18:00 +17°C° 0 mm 5 mps 764 mmHg 56%
    19:00 +17°C° 0 mm 4 mps 764 mmHg 61%
    20:00 +15°C° 0 mm 4 mps 764 mmHg 66%
    21:00 +14°C° 0 mm 4 mps 765 mmHg 68%
    22:00 +14°C° 0 mm 4 mps 765 mmHg 70%
    23:00 +14°C° 0 mm 4 mps 765 mmHg 72%

    Tomorrow, 18 February, Tuesday

    Time Temperature Precipitation Wind Pressure Humidity
    00:00 +14°C° 0 mm 4 mps 765 mmHg 73%
    01:00 +14°C° 0 mm 4 mps 764 mmHg 73%
    02:00 +13°C° 0 mm 4 mps 764 mmHg 74%
    03:00 +13°C° 0 mm 4 mps 764 mmHg 76%
    04:00 +13°C° 0 mm 4 mps 764 mmHg 77%
    05:00 +13°C° 0 mm 4 mps 764 mmHg 79%
    06:00 +14°C° 0 mm 5 mps 764 mmHg 72%
    07:00 +16°C° 0 mm 5 mps 764 mmHg 66%
    08:00 +17°C° 0 mm 6 mps 764 mmHg 60%
    09:00 +20°C° 0 mm 6 mps 764 mmHg 57%
    10:00 +21°C° 0 mm 6 mps 764 mmHg 53%
    11:00 +22°C° 0 mm 6 mps 763 mmHg 50%
    12:00 +22°C° 0 mm 7 mps 763 mmHg 50%
    13:00 +22°C° 0 mm 7 mps 762 mmHg 51%
    14:00 +22°C° 0 mm 7 mps 762 mmHg 51%
    15:00 +21°C° 0 mm 7 mps 762 mmHg 55%
    16:00 +21°C° 0 mm 7 mps 762 mmHg 58%
    17:00 +20°C° 0 mm 8 mps 761 mmHg 62%
    18:00 +18°C° 0 mm 7 mps 761 mmHg 67%
    19:00 +17°C° 0 mm 7 mps 761 mmHg 72%
    20:00 +16°C° 0 mm 6 mps 761 mmHg 76%
    21:00 +16°C° 0 mm 6 mps 761 mmHg 78%
    22:00 +16°C° 0 mm 6 mps 761 mmHg 79%
    23:00 +16°C° 0 mm 6 mps 762 mmHg 81%

    Day after tomorrow, 19 February, Wednesday

    Time Temperature Precipitation Wind Pressure Humidity
    00:00 +15°C° 0 mm 5 mps 761 mmHg 83%
    01:00 +15°C° 0 mm 5 mps 761 mmHg 85%
    02:00 +15°C° 0 mm 4 mps 761 mmHg 87%
    03:00 +15°C° 0 mm 4 mps 761 mmHg 87%
    04:00 +15°C° 0 mm 4 mps 761 mmHg 87%
    05:00 +15°C° 0 mm 4 mps 761 mmHg 87%
    06:00 +17°C° 0 mm 4 mps 761 mmHg 81%
    07:00 +19°C° 0 mm 5 mps 761 mmHg 76%
    08:00 +20°C° 0 mm 5 mps 761 mmHg 70%
    09:00 +21°C° 0 mm 5 mps 761 mmHg 66%
    10:00 +22°C° 0 mm 5 mps 761 mmHg 61%
    11:00 +23°C° 0 mm 6 mps 761 mmHg 57%
    12:00 +23°C° 0 mm 6 mps 760 mmHg 57%
    13:00 +23°C° 0 mm 6 mps 760 mmHg 57%
    14:00 +23°C° 0 mm 6 mps 759 mmHg 58%
    15:00 +23°C° 0 mm 6 mps 759 mmHg 60%
    16:00 +22°C° 0 mm 6 mps 759 mmHg 63%
    17:00 +21°C° 0 mm 7 mps 759 mmHg 66%
    18:00 +20°C° 0 mm 6 mps 759 mmHg 72%
    19:00 +19°C° 0 mm 6 mps 760 mmHg 78%
    20:00 +17°C° 0 mm 5 mps 760 mmHg 85%
    21:00 +17°C° 0 mm 6 mps 760 mmHg 82%
    22:00 +17°C° 0 mm 6 mps 760 mmHg 79%
    23:00 +19°C° 0 mm 6 mps 760 mmHg 76%

    20 February, Thursday

    Time Temperature Precipitation Wind Pressure Humidity
    00:00 +19°C° 0 mm 6 mps 760 mmHg 75%
    01:00 +19°C° 0 mm 6 mps 760 mmHg 74%
    02:00 +19°C° 0 mm 5 mps 760 mmHg 73%
    03:00 +19°C° 0 mm 5 mps 760 mmHg 73%
    04:00 +19°C° 0 mm 5 mps 760 mmHg 73%
    05:00 +19°C° 0 mm 5 mps 760 mmHg 73%
    06:00 +19°C° 0 mm 5 mps 761 mmHg 70%
    07:00 +20°C° 0 mm 5 mps 761 mmHg 68%
    08:00 +20°C° 0 mm 5 mps 761 mmHg 66%
    09:00 +21°C° 0 mm 6 mps 761 mmHg 64%
    10:00 +22°C° 0 mm 6 mps 761 mmHg 62%
    11:00 +22°C° 0 mm 6 mps 761 mmHg 60%
    12:00 +23°C° 0 mm 7 mps 761 mmHg 59%
    13:00 +23°C° 0 mm 7 mps 761 mmHg 58%
    14:00 +24°C° 0 mm 7 mps 760 mmHg 56%
    15:00 +23°C° 0 mm 7 mps 760 mmHg 58%
    16:00 +22°C° 0 mm 7 mps 760 mmHg 60%
    17:00 +22°C° 0 mm 7 mps 760 mmHg 62%
    18:00 +20°C° 0 mm 7 mps 760 mmHg 67%
    19:00 +18°C° 0 mm 7 mps 761 mmHg 72%
    20:00 +17°C° 0 mm 6 mps 761 mmHg 77%
    21:00 +17°C° 0 mm 6 mps 761 mmHg 78%
    22:00 +17°C° 0 mm 6 mps 761 mmHg 80%
    23:00 +16°C° 0 mm 6 mps 761 mmHg 82%

    21 February, Friday

    Time Temperature Precipitation Wind Pressure Humidity
    00:00 +17°C° 0 mm 6 mps 761 mmHg 80%
    01:00 +17°C° 0 mm 6 mps 761 mmHg 79%
    02:00 +19°C° 0 mm 6 mps 761 mmHg 77%
    03:00 +17°C° 0 mm 5 mps 760 mmHg 78%
    04:00 +17°C° 0 mm 5 mps 760 mmHg 78%
    05:00 +17°C° 0 mm 5 mps 760 mmHg 79%
    06:00 +19°C° 0 mm 5 mps 760 mmHg 76%
    07:00 +20°C° 0 mm 5 mps 761 mmHg 73%
    08:00 +20°C° 0 mm 5 mps 761 mmHg 70%
    09:00 +22°C° 0 mm 6 mps 760 mmHg 64%
    10:00 +24°C° 0 mm 6 mps 760 mmHg 58%
    11:00 +26°C° 0 mm 6 mps 760 mmHg 53%
    12:00 +27°C° 0 mm 7 mps 759 mmHg 51%
    13:00 +27°C° 0 mm 7 mps 759 mmHg 50%
    14:00 +28°C° 0 mm 7 mps 758 mmHg 49%
    21:00 +23°C° 0 mm 7 mps 754 mmHg 65%
    22:00 +19°C° 0 mm 5 mps 758 mmHg 79%
    23:00 +18°C° 0 mm 4 mps 758 mmHg 82%

    22 February, Saturday

    Time Temperature Precipitation Wind Pressure Humidity
    00:00 +18°C° 0 mm 4 mps 758 mmHg 84%
    01:00 +18°C° 0 mm 4 mps 757 mmHg 86%
    02:00 +17°C° 0 mm 4 mps 756 mmHg 87%
    03:00 +17°C° 0 mm 4 mps 756 mmHg 87%
    04:00 +17°C° 0 mm 4 mps 756 mmHg 87%
    05:00 +17°C° 0 mm 3 mps 756 mmHg 86%
    06:00 +19°C° 0 mm 3 mps 756 mmHg 73%
    07:00 +21°C° 0 mm 3 mps 756 mmHg 59%
    08:00 +25°C° 0 mm 3 mps 757 mmHg 45%
    09:00 +28°C° 0 mm 3 mps 756 mmHg 38%
    10:00 +31°C° 0 mm 3 mps 756 mmHg 31%
    11:00 +35°C° 0 mm 3 mps 755 mmHg 24%
    12:00 +34°C° 0 mm 4 mps 755 mmHg 30%
    13:00 +32°C° 0 mm 4 mps 754 mmHg 35%
    14:00 +29°C° 0 mm 5 mps 754 mmHg 40%
    15:00 +29°C° 0 mm 4 mps 753 mmHg 42%
    16:00 +29°C° 0 mm 4 mps 753 mmHg 43%
    17:00 +29°C° 0 mm 3 mps 753 mmHg 45%
    18:00 +27°C° 0 mm 3 mps 753 mmHg 52%
    19:00 +26°C° 0 mm 3 mps 753 mmHg 59%
    20:00 +24°C° 0 mm 3 mps 753 mmHg 66%
    21:00 +24°C° 0 mm 2 mps 753 mmHg 67%
    22:00 +24°C° 0 mm 2 mps 753 mmHg 69%
    23:00 +23°C° 0 mm 2 mps 753 mmHg 71%
    Show more